Flag for Denmark Weather past 2 weeks in Randers, Denmark

Now
63 °F

Mild.


Feels Like: 63 °F
Forecast: 53 / 69 °F
Wind: 7 mph from Southwest

Location: Tirstrup

Current Time: Aug 29, 2015 at 10:22:44 AM

Latest Report: Aug 29, 2015 at 9:20 AM


Visibility: N/A

Pressure: 30.15 "Hg

Humidity: 73%

Dew point: 54 °F

Location of RandersLocation

Historic Weather in Randers — Graph

°F

Randers temperature yesterday

Maximum temperature yesterday: 70 °F (at 2:20 PM)
Minimum temperature yesterday: 54 °F (at 5:20 AM)
Average temperature yesterday: 62 °F

Past Weeks' High & Low Weather Summary

 TemperatureHumidityPressure
High77 °F (Aug 17, 2:20 PM)88% (Aug 16, 1:20 PM)30.36 "Hg (Aug 16, 1:20 PM)
Low50 °F (Aug 22, 6:20 AM)24% (Aug 22, 2:50 PM)29.62 "Hg (Aug 25, 4:20 AM)
Average66 °F63%30.00 "Hg
* Reported Aug 14 9:20 AM — Aug 29 9:20 AM, Randers, Weather by CustomWeather, © 2015

Note: Actual official high and low records may vary slightly from our data, if they occured in-between our weather recording intervals... More about our weather records

Advertising

Randers weather history for previous 24 hours

 ConditionsComfort  
Time TempWeatherWind HumidityBarometerVisibility
9:20 AM
Sat, Aug 29
63 °FMild.7 mph73%30.15 "HgN/A
8:50 AM61 °FCool.6 mph77%30.15 "HgN/A
7:50 AM57 °FCool.5 mph82%30.12 "HgN/A
7:20 AM55 °FCool.3 mph88%30.12 "HgN/A
6:50 AM54 °FCool.3 mph88%30.12 "HgN/A
6:20 AM54 °FCool.3 mph88%30.12 "HgN/A
5:50 AM54 °FCool.3 mph82%30.09 "HgN/A
5:20 AM55 °FCool.5 mph77%30.09 "HgN/A
4:50 AM55 °FCool.5 mph82%30.09 "HgN/A
4:20 AM55 °FCool.5 mph82%30.09 "HgN/A
3:50 AM55 °FCool.5 mph82%30.09 "HgN/A
3:20 AM55 °FCool.5 mph82%30.09 "HgN/A
2:50 AM57 °FCool.6 mph77%30.07 "HgN/A
2:20 AM57 °FCool.8 mph77%30.07 "HgN/A
1:50 AM57 °FCool.7 mph77%30.07 "HgN/A
1:20 AM57 °FPassing clouds.6 mph77%30.07 "HgN/A
12:50 AM57 °FCool.6 mph77%30.07 "HgN/A
12:20 AM57 °FCool.5 mph72%30.04 "HgN/A
11:50 PM
Fri, Aug 28
59 °FCool.5 mph72%30.04 "HgN/A
11:20 PM57 °FCool.3 mph72%30.04 "HgN/A
10:50 PM59 °FCool.5 mph68%30.04 "HgN/A
10:20 PM59 °FCool.6 mph68%30.04 "HgN/A
9:50 PM59 °FCool.7 mph63%30.01 "HgN/A
9:20 PM59 °FCool.5 mph63%30.01 "HgN/A
8:50 PM59 °FRefreshingly cool.5 mph59%30.01 "Hg5 mi
8:20 PM61 °FRefreshingly cool.3 mph55%29.98 "HgN/A
7:50 PM64 °FPassing clouds.8 mph46%29.98 "HgN/A
7:20 PM66 °FPassing clouds.6 mph52%29.98 "HgN/A
6:50 PM66 °FPartly sunny.6 mph56%29.98 "HgN/A
6:20 PM66 °FPartly sunny.8 mph52%29.95 "HgN/A
5:50 PM66 °FPartly sunny.8 mph49%29.95 "HgN/A
5:20 PM66 °FBroken clouds.6 mph52%29.95 "HgN/A
4:50 PM66 °FPartly sunny.6 mph52%29.95 "HgN/A
4:20 PM68 °FScattered clouds.7 mph43%29.95 "HgN/A
3:50 PM68 °FPassing clouds.13 mph46%29.95 "HgN/A
3:20 PM66 °FBroken clouds.13 mph43%29.92 "HgN/A
2:50 PM68 °FPartly sunny.8 mph40%29.92 "HgN/A
2:20 PM70 °FScattered clouds.17 mph38%29.92 "HgN/A
1:50 PM68 °FScattered clouds.13 mph43%29.92 "HgN/A
1:20 PM68 °FPassing clouds.10 mph43%29.92 "HgN/A
12:50 PM68 °FPartly sunny.13 mph43%29.92 "HgN/A
12:20 PM66 °FBroken clouds.13 mph46%29.92 "HgN/A
11:50 AM68 °FScattered clouds.14 mph43%29.89 "HgN/A
11:20 AM66 °FScattered clouds.13 mph52%29.89 "HgN/A
10:50 AM64 °FScattered clouds.12 mph64%29.89 "HgN/A
10:20 AM63 °FMild.10 mph73%29.89 "HgN/A
Weather by CustomWeather, © 2015

See weather overviewHow to use our weather pages